AFR327 CYOW-LFPG

Flight info

Callsign AFR327
Flight time N/A
Altitude 37000
Route TAKOL Q941 ESTEL DCT ANCER DCT YBC DCT NEEKO/M084F380 DCT 54N050W/M084F370 55N040W 56N030W 56N020W DCT PIKIL/M084F380 DCT SOVED/N0473F390 DCT REVNU DCT LIPGO DCT NUCHU/N0478F350 DCT SFD/N0455F290 UM605 PETAX/N0427F250 UM605 BIBAX
Aircraft B772/H-SDE2E3FGHIJ5LORVWXY/LB1D1

Departure

Time 2026-04-29 06:40
Airport Ottawa Macdonald-Cartier International Airport (CYOW)

Arrival

Time N/A
Airport Charles de Gaulle International Airport (LFPG)
Time Latitude Longitude Altitude Speed Heading
2026-04-29 05:56 45.32213 -75.66947 381 ft 0 kts 36°
2026-04-29 06:30 45.32188 -75.66973 381 ft 4 kts 38°
2026-04-29 06:30 45.32168 -75.66999 381 ft 4 kts 63°
2026-04-29 06:31 45.32167 -75.67024 381 ft 3 kts 126°
2026-04-29 06:31 45.32183 -75.67055 381 ft 4 kts 126°
2026-04-29 06:31 45.32192 -75.67073 381 ft 0 kts 126°
2026-04-29 06:36 45.32179 -75.67075 381 ft 3 kts 200°
2026-04-29 06:36 45.32161 -75.67102 381 ft 6 kts 226°
2026-04-29 06:36 45.32169 -75.67207 380 ft 17 kts 308°
2026-04-29 06:37 45.32258 -75.67309 377 ft 18 kts 310°
2026-04-29 06:37 45.32340 -75.67464 380 ft 20 kts 307°
2026-04-29 06:37 45.32421 -75.67619 374 ft 20 kts 307°
2026-04-29 06:37 45.32502 -75.67778 376 ft 20 kts 306°
2026-04-29 06:38 45.32582 -75.67933 376 ft 20 kts 306°
2026-04-29 06:38 45.32663 -75.68088 373 ft 19 kts 306°
2026-04-29 06:38 45.32744 -75.68243 368 ft 19 kts 307°
2026-04-29 06:38 45.32766 -75.68349 369 ft 9 kts 232°
2026-04-29 06:39 45.32718 -75.68393 370 ft 8 kts 213°
2026-04-29 06:39 45.32667 -75.68442 367 ft 10 kts 215°
2026-04-29 06:39 45.32607 -75.68433 365 ft 10 kts 130°
2026-04-29 06:39 45.32533 -75.68294 370 ft 31 kts 126°
2026-04-29 06:40 45.32289 -75.67824 376 ft 96 kts 126°
2026-04-29 06:40 45.31754 -75.66796 381 ft 160 kts 127°
2026-04-29 06:40 45.31032 -75.65394 830 ft 172 kts 130°
2026-04-29 06:40 45.30313 -75.64085 1708 ft 177 kts 136°
2026-04-29 06:41 45.29443 -75.62748 2236 ft 194 kts 140°
2026-04-29 06:41 45.28439 -75.61254 2484 ft 223 kts 138°
2026-04-29 06:41 45.27329 -75.59546 2803 ft 244 kts 136°
2026-04-29 06:41 45.26150 -75.57660 3190 ft 263 kts 136°
2026-04-29 06:42 45.24922 -75.55704 3877 ft 268 kts 136°
2026-04-29 06:42 45.23689 -75.53687 4610 ft 272 kts 134°
2026-04-29 06:42 45.22466 -75.51614 5354 ft 275 kts 134°
2026-04-29 06:42 45.21219 -75.49589 6184 ft 272 kts 136°
2026-04-29 06:43 45.19948 -75.47586 6907 ft 274 kts 136°
2026-04-29 06:43 45.18788 -75.45454 7366 ft 283 kts 118°
2026-04-29 06:43 45.18449 -75.42666 7851 ft 297 kts 84°
2026-04-29 06:43 45.19136 -75.39895 8462 ft 302 kts 57°
2026-04-29 06:44 45.20509 -75.37637 9082 ft 302 kts 41°
2026-04-29 06:44 45.22099 -75.35654 9616 ft 307 kts 39°
2026-04-29 06:44 45.23737 -75.33682 10174 ft 311 kts 38°
2026-04-29 06:44 45.25439 -75.31649 10373 ft 330 kts 38°
2026-04-29 06:45 45.27250 -75.29486 10524 ft 349 kts 38°
2026-04-29 06:45 45.29161 -75.27191 10698 ft 371 kts 39°
2026-04-29 06:45 45.31177 -75.24755 11155 ft 384 kts 39°
2026-04-29 06:45 45.33207 -75.22287 11786 ft 393 kts 39°
2026-04-29 06:46 45.35292 -75.19743 12608 ft 398 kts 39°
2026-04-29 06:46 45.37407 -75.17154 13467 ft 404 kts 38°
2026-04-29 06:46 45.39552 -75.14525 14207 ft 410 kts 38°
2026-04-29 06:46 45.41724 -75.11858 14946 ft 415 kts 39°
2026-04-29 06:47 45.43920 -75.09159 15674 ft 419 kts 39°
2026-04-29 06:47 45.46131 -75.06436 16470 ft 421 kts 39°
2026-04-29 06:47 45.48360 -75.03690 17176 ft 426 kts 39°
2026-04-29 06:47 45.50617 -75.00907 17823 ft 432 kts 39°
2026-04-29 06:48 45.52902 -74.98087 18433 ft 437 kts 39°
2026-04-29 06:48 45.55210 -74.95235 19027 ft 441 kts 39°
2026-04-29 06:48 45.57529 -74.92366 19641 ft 444 kts 39°
2026-04-29 06:48 45.59874 -74.89460 20206 ft 447 kts 39°
2026-04-29 06:49 45.62232 -74.86536 20780 ft 451 kts 39°
2026-04-29 06:49 45.64608 -74.83585 21319 ft 454 kts 39°
2026-04-29 06:49 45.67004 -74.80607 21873 ft 458 kts 39°
2026-04-29 06:49 45.69418 -74.77603 22392 ft 462 kts 39°
2026-04-29 06:50 45.71850 -74.74572 22950 ft 465 kts 39°
2026-04-29 06:50 45.74301 -74.71514 23484 ft 469 kts 39°
2026-04-29 06:50 45.76769 -74.68432 23945 ft 472 kts 39°
2026-04-29 06:50 45.79251 -74.65329 24417 ft 474 kts 39°
2026-04-29 06:51 45.81668 -74.62091 24884 ft 478 kts 46°
2026-04-29 06:51 45.83773 -74.58384 25344 ft 481 kts 54°
2026-04-29 06:51 45.85560 -74.54312 25797 ft 484 kts 62°
2026-04-29 06:51 45.86979 -74.49941 26261 ft 485 kts 68°
2026-04-29 06:52 45.88271 -74.45509 26696 ft 488 kts 68°
2026-04-29 06:52 45.89603 -74.41009 27184 ft 489 kts 67°
2026-04-29 06:52 45.90965 -74.36535 27716 ft 489 kts 66°
2026-04-29 06:52 45.92349 -74.32059 28156 ft 492 kts 66°
2026-04-29 06:53 45.93754 -74.27560 28535 ft 495 kts 66°
2026-04-29 06:53 45.95185 -74.23040 28906 ft 499 kts 64°
2026-04-29 06:53 45.96866 -74.18665 29285 ft 501 kts 58°
2026-04-29 06:53 45.98825 -74.14492 29674 ft 504 kts 53°
2026-04-29 06:54 46.01059 -74.10598 30026 ft 506 kts 49°
2026-04-29 06:54 46.03361 -74.06757 30325 ft 508 kts 49°
2026-04-29 06:54 46.05680 -74.02902 30600 ft 510 kts 49°
2026-04-29 06:54 46.08005 -73.99023 30863 ft 513 kts 49°
2026-04-29 06:55 46.10306 -73.95158 31092 ft 515 kts 49°
2026-04-29 06:55 46.12630 -73.91227 31386 ft 515 kts 50°
2026-04-29 06:55 46.14946 -73.87289 31743 ft 514 kts 50°
2026-04-29 06:55 46.17258 -73.83342 32101 ft 513 kts 50°
2026-04-29 06:56 46.19561 -73.79402 32445 ft 514 kts 50°
2026-04-29 06:56 46.21863 -73.75457 32779 ft 514 kts 50°
2026-04-29 06:56 46.24171 -73.71497 33105 ft 514 kts 51°
2026-04-29 06:56 46.26470 -73.67547 33422 ft 515 kts 51°
2026-04-29 06:57 46.28778 -73.63577 33765 ft 514 kts 51°
2026-04-29 06:57 46.31080 -73.59615 34079 ft 514 kts 51°
2026-04-29 06:57 46.33380 -73.55650 34366 ft 514 kts 51°
2026-04-29 06:57 46.35683 -73.51675 34657 ft 514 kts 51°
2026-04-29 06:58 46.37954 -73.47750 34947 ft 514 kts 51°
2026-04-29 06:58 46.40248 -73.43780 35227 ft 514 kts 51°
2026-04-29 06:58 46.42541 -73.39805 35491 ft 514 kts 51°
2026-04-29 06:58 46.44833 -73.35824 35766 ft 514 kts 51°
2026-04-29 06:59 46.47127 -73.31832 35901 ft 517 kts 51°
2026-04-29 06:59 46.51758 -73.23759 35964 ft 520 kts 51°
2026-04-29 07:00 46.56352 -73.15731 35965 ft 513 kts 52°
2026-04-29 07:00 46.60911 -73.07740 35977 ft 514 kts 52°
2026-04-29 07:01 46.65476 -72.99713 35970 ft 514 kts 52°
2026-04-29 07:01 46.70036 -72.91671 35967 ft 515 kts 52°
2026-04-29 07:02 46.74602 -72.83600 35977 ft 516 kts 53°
2026-04-29 07:02 46.79138 -72.75554 35972 ft 516 kts 53°
2026-04-29 07:03 46.83702 -72.67432 35979 ft 517 kts 53°
2026-04-29 07:03 46.88263 -72.59294 35943 ft 517 kts 53°
2026-04-29 07:04 46.92820 -72.51137 35976 ft 517 kts 54°
2026-04-29 07:04 46.97145 -72.43381 35983 ft 518 kts 54°
2026-04-29 07:05 47.01698 -72.35185 35980 ft 519 kts 54°
2026-04-29 07:05 47.06249 -72.26970 36000 ft 519 kts 54°
2026-04-29 07:06 47.10802 -72.18723 36002 ft 520 kts 54°
2026-04-29 07:06 47.15351 -72.10461 36003 ft 520 kts 54°
2026-04-29 07:07 47.19902 -72.02171 36000 ft 521 kts 54°
2026-04-29 07:07 47.24451 -71.93860 36010 ft 521 kts 54°
2026-04-29 07:08 47.28955 -71.85604 36001 ft 520 kts 54°
2026-04-29 07:08 47.33480 -71.77286 36019 ft 520 kts 54°
2026-04-29 07:09 47.37995 -71.68961 36028 ft 519 kts 54°
2026-04-29 07:09 47.42506 -71.60617 36024 ft 519 kts 55°
2026-04-29 07:10 47.47008 -71.52265 36040 ft 519 kts 55°
2026-04-29 07:10 47.51504 -71.43899 36039 ft 519 kts 55°
2026-04-29 07:11 47.55961 -71.35579 36036 ft 519 kts 55°
2026-04-29 07:11 47.60439 -71.27193 36035 ft 518 kts 55°
2026-04-29 07:12 47.64909 -71.18799 36044 ft 518 kts 55°
2026-04-29 07:12 47.69371 -71.10390 36054 ft 519 kts 56°
2026-04-29 07:13 47.73080 -71.03384 36068 ft 520 kts 56°
2026-04-29 07:13 47.77547 -70.94919 36045 ft 521 kts 56°
2026-04-29 07:14 47.82020 -70.86420 36056 ft 522 kts 56°
2026-04-29 07:14 47.86494 -70.77890 36038 ft 523 kts 56°
2026-04-29 07:15 47.90962 -70.69343 36042 ft 523 kts 56°
2026-04-29 07:15 47.95440 -70.60753 36047 ft 524 kts 56°
2026-04-29 07:16 47.99914 -70.52147 36018 ft 524 kts 56°
2026-04-29 07:16 48.04343 -70.43589 36041 ft 524 kts 56°
2026-04-29 07:17 48.08789 -70.34977 36058 ft 522 kts 56°
2026-04-29 07:17 48.13228 -70.26356 36048 ft 521 kts 56°
2026-04-29 07:18 48.17638 -70.17760 36054 ft 519 kts 56°
2026-04-29 07:18 48.22000 -70.09231 36081 ft 518 kts 56°
2026-04-29 07:19 48.26373 -70.00652 36083 ft 515 kts 56°
2026-04-29 07:19 48.30719 -69.92100 36074 ft 514 kts 57°
2026-04-29 07:20 48.35039 -69.83573 36080 ft 512 kts 57°
2026-04-29 07:20 48.39343 -69.75050 36096 ft 510 kts 56°
2026-04-29 07:21 48.43601 -69.66588 36099 ft 510 kts 56°
2026-04-29 07:21 48.47879 -69.58061 36102 ft 510 kts 56°
2026-04-29 07:22 48.52155 -69.49512 36102 ft 511 kts 56°
2026-04-29 07:22 48.56434 -69.40930 36105 ft 511 kts 57°
2026-04-29 07:23 48.60681 -69.32282 36102 ft 512 kts 57°
2026-04-29 07:23 48.64889 -69.23638 36108 ft 513 kts 57°
2026-04-29 07:24 48.69123 -69.14923 36107 ft 514 kts 57°
2026-04-29 07:24 48.73362 -69.06185 36084 ft 514 kts 57°
2026-04-29 07:25 48.77583 -68.97459 36106 ft 513 kts 57°
2026-04-29 07:25 48.81787 -68.88734 36105 ft 512 kts 57°
2026-04-29 07:26 48.85974 -68.80015 36116 ft 510 kts 57°
2026-04-29 07:26 48.90124 -68.71349 36123 ft 509 kts 57°
2026-04-29 07:27 48.94290 -68.62617 36115 ft 509 kts 57°
2026-04-29 07:27 48.98443 -68.53888 36125 ft 508 kts 57°
2026-04-29 07:28 49.02578 -68.45165 36131 ft 508 kts 57°
2026-04-29 07:28 49.06708 -68.36426 36090 ft 508 kts 57°
2026-04-29 07:29 49.10804 -68.27733 36089 ft 507 kts 57°
2026-04-29 07:29 49.14675 -68.18768 36075 ft 502 kts 65°
2026-04-29 07:30 49.17855 -68.09293 36075 ft 501 kts 66°
2026-04-29 07:30 49.20987 -67.99778 36105 ft 500 kts 66°
2026-04-29 07:31 49.25705 -67.85568 36149 ft 501 kts 66°
2026-04-29 07:31 49.28876 -67.76049 36163 ft 501 kts 66°
2026-04-29 07:32 49.32036 -67.66534 36165 ft 501 kts 66°
2026-04-29 07:32 49.35190 -67.57000 36161 ft 501 kts 66°
2026-04-29 07:33 49.38333 -67.47453 36163 ft 500 kts 66°
2026-04-29 07:33 49.41458 -67.37924 36167 ft 500 kts 66°
2026-04-29 07:34 49.44579 -67.28373 36175 ft 500 kts 66°
2026-04-29 07:34 49.47686 -67.18830 36180 ft 499 kts 66°
2026-04-29 07:35 49.50786 -67.09269 36187 ft 499 kts 66°
2026-04-29 07:35 49.53876 -66.99705 36182 ft 499 kts 66°
2026-04-29 07:36 49.56954 -66.90142 36175 ft 498 kts 66°
2026-04-29 07:36 49.59999 -66.80645 36177 ft 496 kts 66°
2026-04-29 07:37 49.63052 -66.71087 36185 ft 495 kts 66°
2026-04-29 07:37 49.66085 -66.61554 36186 ft 495 kts 66°
2026-04-29 07:38 49.69112 -66.52005 36186 ft 494 kts 66°
2026-04-29 07:38 49.72124 -66.42464 36182 ft 494 kts 66°
2026-04-29 07:39 49.75129 -66.32910 36184 ft 494 kts 66°
2026-04-29 07:39 49.78125 -66.23347 36185 ft 494 kts 66°
2026-04-29 07:40 49.81091 -66.13843 36184 ft 494 kts 66°
2026-04-29 07:40 49.84074 -66.04249 36180 ft 494 kts 66°
2026-04-29 07:41 49.87048 -65.94648 36185 ft 494 kts 66°
2026-04-29 07:41 49.90015 -65.85031 36181 ft 494 kts 67°
2026-04-29 07:42 49.92976 -65.75394 36184 ft 494 kts 67°
2026-04-29 07:42 49.95931 -65.65739 36192 ft 495 kts 67°
2026-04-29 07:43 49.98878 -65.56074 36182 ft 494 kts 67°
2026-04-29 07:43 50.01809 -65.46424 36190 ft 493 kts 67°
2026-04-29 07:44 50.04729 -65.36772 36201 ft 492 kts 67°
2026-04-29 07:44 50.07639 -65.27114 36204 ft 492 kts 67°
2026-04-29 07:45 50.10513 -65.17534 36210 ft 491 kts 67°
2026-04-29 07:45 50.13402 -65.07869 36212 ft 491 kts 67°
2026-04-29 07:46 50.16281 -64.98199 36224 ft 491 kts 67°
2026-04-29 07:46 50.19150 -64.88524 36231 ft 491 kts 67°
2026-04-29 07:47 50.22012 -64.78833 36232 ft 490 kts 67°
2026-04-29 07:47 50.24861 -64.69148 36243 ft 490 kts 67°
2026-04-29 07:48 50.27681 -64.59523 36245 ft 490 kts 67°
2026-04-29 07:48 50.30512 -64.49823 36258 ft 490 kts 67°
2026-04-29 07:49 50.33336 -64.40106 36257 ft 490 kts 67°
2026-04-29 07:49 50.36150 -64.30382 36260 ft 490 kts 67°
2026-04-29 07:50 50.38957 -64.20645 36262 ft 490 kts 67°
2026-04-29 07:50 50.41754 -64.10903 36264 ft 489 kts 67°
2026-04-29 07:51 50.44521 -64.01228 36264 ft 489 kts 67°
2026-04-29 07:51 50.47299 -63.91473 36272 ft 489 kts 68°
2026-04-29 07:52 50.50066 -63.81716 36269 ft 489 kts 68°
2026-04-29 07:52 50.52823 -63.71951 36249 ft 488 kts 68°
2026-04-29 07:53 50.55567 -63.62194 36255 ft 488 kts 68°
2026-04-29 07:53 50.58309 -63.52408 36261 ft 488 kts 68°
2026-04-29 07:54 50.61036 -63.42629 36278 ft 487 kts 68°
2026-04-29 07:54 50.63750 -63.32862 36276 ft 487 kts 68°
2026-04-29 07:55 50.66439 -63.23142 36281 ft 486 kts 68°
2026-04-29 07:55 50.69135 -63.13351 36282 ft 486 kts 68°
2026-04-29 07:56 50.71823 -63.03554 36288 ft 486 kts 68°
2026-04-29 07:56 50.74499 -62.93757 36286 ft 486 kts 68°
2026-04-29 07:57 50.77169 -62.83942 36285 ft 486 kts 68°
2026-04-29 07:57 50.79816 -62.74168 36290 ft 486 kts 68°
2026-04-29 07:58 50.82476 -62.64309 36291 ft 486 kts 68°
2026-04-29 07:58 50.85110 -62.54504 36290 ft 486 kts 68°
2026-04-29 07:59 50.87747 -62.44642 36291 ft 486 kts 68°
2026-04-29 07:59 50.90373 -62.34778 36291 ft 486 kts 68°
2026-04-29 08:00 50.92554 -62.26559 36293 ft 486 kts 68°
2026-04-29 08:00 50.95172 -62.16651 36299 ft 487 kts 68°
2026-04-29 08:01 50.97784 -62.06717 36292 ft 488 kts 68°
2026-04-29 08:01 51.00389 -61.96772 36291 ft 487 kts 68°
2026-04-29 08:02 51.02966 -61.86890 36293 ft 487 kts 68°
2026-04-29 08:02 51.05556 -61.76916 36294 ft 487 kts 68°
2026-04-29 08:03 51.08130 -61.66956 36292 ft 487 kts 68°
2026-04-29 08:03 51.10700 -61.56971 36295 ft 488 kts 68°
2026-04-29 08:04 51.13264 -61.46964 36296 ft 488 kts 68°
2026-04-29 08:04 51.15803 -61.37013 36295 ft 488 kts 69°
2026-04-29 08:05 51.18350 -61.26984 36289 ft 488 kts 68°
2026-04-29 08:05 51.20890 -61.16935 36298 ft 488 kts 68°
2026-04-29 08:06 51.23420 -61.06884 36293 ft 488 kts 68°
2026-04-29 08:06 51.25946 -60.96805 36298 ft 488 kts 68°
2026-04-29 08:07 51.28460 -60.86723 36290 ft 488 kts 69°
2026-04-29 08:07 51.30948 -60.76700 36290 ft 488 kts 68°
2026-04-29 08:08 51.33447 -60.66592 36293 ft 489 kts 68°
2026-04-29 08:08 51.35939 -60.56466 36291 ft 489 kts 69°
2026-04-29 08:09 51.38423 -60.46319 36286 ft 489 kts 68°
2026-04-29 08:09 51.40894 -60.36185 36285 ft 488 kts 68°
2026-04-29 08:10 51.43355 -60.26044 36285 ft 488 kts 68°
2026-04-29 08:10 51.45806 -60.15896 36285 ft 488 kts 68°
2026-04-29 08:11 51.48231 -60.05809 36283 ft 487 kts 68°
2026-04-29 08:11 51.50677 -59.95587 36284 ft 487 kts 69°
2026-04-29 08:12 51.53082 -59.85489 36279 ft 487 kts 69°
2026-04-29 08:12 51.55495 -59.75307 36284 ft 488 kts 68°
2026-04-29 08:13 51.57900 -59.65112 36282 ft 487 kts 68°
2026-04-29 08:13 51.60293 -59.54925 36283 ft 487 kts 68°
2026-04-29 08:14 51.62676 -59.44731 36279 ft 486 kts 69°
2026-04-29 08:14 51.65046 -59.34541 36280 ft 486 kts 69°
2026-04-29 08:15 51.67411 -59.24329 36283 ft 486 kts 68°
2026-04-29 08:15 51.69767 -59.14103 36278 ft 486 kts 69°
2026-04-29 08:16 51.72096 -59.03946 36286 ft 486 kts 69°
2026-04-29 08:16 51.74431 -58.93710 36289 ft 486 kts 69°
2026-04-29 08:17 51.76759 -58.83460 36282 ft 486 kts 69°
2026-04-29 08:17 51.79077 -58.73200 36291 ft 486 kts 69°
2026-04-29 08:18 51.81391 -58.62912 36287 ft 487 kts 69°
2026-04-29 08:18 51.83679 -58.52688 36289 ft 487 kts 69°
2026-04-29 08:19 51.85978 -58.42363 36295 ft 487 kts 69°
2026-04-29 08:19 51.88268 -58.32030 36293 ft 487 kts 69°
2026-04-29 08:20 51.90535 -58.21742 36297 ft 487 kts 69°
2026-04-29 08:20 51.92807 -58.11385 36300 ft 487 kts 69°
2026-04-29 08:21 51.95069 -58.01026 36296 ft 487 kts 69°
2026-04-29 08:21 51.97318 -57.90671 36294 ft 486 kts 69°
2026-04-29 08:22 51.99554 -57.80325 36298 ft 486 kts 69°
2026-04-29 08:22 52.01780 -57.69970 36309 ft 485 kts 69°
2026-04-29 08:23 52.03986 -57.59660 36296 ft 486 kts 69°
2026-04-29 08:23 52.06195 -57.49281 36296 ft 486 kts 69°
2026-04-29 08:24 52.08393 -57.38901 36296 ft 486 kts 69°
2026-04-29 08:24 52.10585 -57.28493 36292 ft 486 kts 69°
2026-04-29 08:25 52.12766 -57.18083 36288 ft 486 kts 69°
2026-04-29 08:25 52.14938 -57.07665 36285 ft 486 kts 69°
2026-04-29 08:26 52.17103 -56.97230 36281 ft 486 kts 69°
2026-04-29 08:26 52.19258 -56.86785 36277 ft 486 kts 69°
2026-04-29 08:27 52.21392 -56.76388 36275 ft 486 kts 69°
2026-04-29 08:27 52.23530 -56.65911 36275 ft 486 kts 69°
2026-04-29 08:28 52.25658 -56.55436 36283 ft 487 kts 69°
2026-04-29 08:28 52.27768 -56.44990 36268 ft 487 kts 69°
2026-04-29 08:29 52.29882 -56.34469 36261 ft 487 kts 69°
2026-04-29 08:29 52.31988 -56.23927 36237 ft 487 kts 69°
2026-04-29 08:30 52.35130 -56.08098 36220 ft 487 kts 69°
2026-04-29 08:31 52.37212 -55.97542 36224 ft 488 kts 69°
2026-04-29 08:31 52.39288 -55.86963 36214 ft 488 kts 69°
2026-04-29 08:32 52.41900 -55.76772 36228 ft 484 kts 60°
2026-04-29 08:32 52.44976 -55.66962 36219 ft 484 kts 59°
2026-04-29 08:33 52.48027 -55.57199 36224 ft 484 kts 60°
2026-04-29 08:33 52.51064 -55.47334 36229 ft 484 kts 60°
2026-04-29 08:34 52.54079 -55.37441 36236 ft 484 kts 60°
2026-04-29 08:34 52.57084 -55.27525 36234 ft 484 kts 60°
2026-04-29 08:35 52.60081 -55.17600 36235 ft 485 kts 60°
2026-04-29 08:35 52.63074 -55.07654 36249 ft 485 kts 59°
2026-04-29 08:36 52.66064 -54.97676 36241 ft 485 kts 60°
2026-04-29 08:36 52.69046 -54.87681 36239 ft 486 kts 60°
2026-04-29 08:37 52.72022 -54.77666 36236 ft 486 kts 60°
2026-04-29 08:37 52.74967 -54.67712 36237 ft 486 kts 60°
2026-04-29 08:38 52.77928 -54.57662 36249 ft 486 kts 59°
2026-04-29 08:38 52.80882 -54.47593 36242 ft 486 kts 60°
2026-04-29 08:39 52.83822 -54.37530 36241 ft 486 kts 60°
2026-04-29 08:39 52.86752 -54.27456 36235 ft 485 kts 60°
2026-04-29 08:40 52.89676 -54.17360 36260 ft 485 kts 59°
2026-04-29 08:40 52.92587 -54.07268 36245 ft 485 kts 59°
2026-04-29 08:41 52.95473 -53.97219 36241 ft 485 kts 60°
2026-04-29 08:41 52.98368 -53.87098 36246 ft 485 kts 60°
2026-04-29 08:42 53.01253 -53.76966 36240 ft 485 kts 60°
2026-04-29 08:42 53.04130 -53.66818 36244 ft 486 kts 60°
2026-04-29 08:43 53.07001 -53.56646 36241 ft 486 kts 60°
2026-04-29 08:43 53.09844 -53.46529 36249 ft 485 kts 60°
2026-04-29 08:44 53.12697 -53.36336 36237 ft 485 kts 60°
2026-04-29 08:44 53.15535 -53.26149 36247 ft 485 kts 60°
2026-04-29 08:45 53.18367 -53.15938 36246 ft 485 kts 60°
2026-04-29 08:45 53.21190 -53.05719 36239 ft 485 kts 60°
2026-04-29 08:46 53.24005 -52.95483 36242 ft 485 kts 60°
2026-04-29 08:46 53.26787 -52.85317 36242 ft 484 kts 60°
2026-04-29 08:47 53.29578 -52.75077 36249 ft 484 kts 60°
2026-04-29 08:47 53.31916 -52.66462 36245 ft 485 kts 60°
2026-04-29 08:48 53.34679 -52.56243 36241 ft 485 kts 60°
2026-04-29 08:48 53.37450 -52.45944 36254 ft 485 kts 60°
2026-04-29 08:49 53.40215 -52.35623 36256 ft 485 kts 60°
2026-04-29 08:49 53.42968 -52.25300 36262 ft 484 kts 60°
2026-04-29 08:50 53.45709 -52.14970 36255 ft 484 kts 60°
2026-04-29 08:50 53.48445 -52.04618 36252 ft 484 kts 60°
2026-04-29 08:51 53.51146 -51.94350 36253 ft 483 kts 60°
2026-04-29 08:51 53.53853 -51.84015 36256 ft 483 kts 60°
2026-04-29 08:52 53.56549 -51.73674 36281 ft 483 kts 60°
2026-04-29 08:52 53.59244 -51.63290 36258 ft 483 kts 60°
2026-04-29 08:53 53.61925 -51.52907 36249 ft 483 kts 60°
2026-04-29 08:53 53.64599 -51.42506 36258 ft 483 kts 60°
2026-04-29 08:54 53.67247 -51.32161 36258 ft 483 kts 60°
2026-04-29 08:54 53.69909 -51.21710 36271 ft 484 kts 60°
2026-04-29 08:55 53.72558 -51.11262 36261 ft 484 kts 60°
2026-04-29 08:55 53.75204 -51.00775 36255 ft 484 kts 61°
2026-04-29 08:56 53.77834 -50.90300 36260 ft 484 kts 61°
2026-04-29 08:56 53.80441 -50.79872 36259 ft 484 kts 61°
2026-04-29 08:57 53.83058 -50.69355 36262 ft 485 kts 61°
2026-04-29 08:57 53.85670 -50.58804 36259 ft 485 kts 61°
2026-04-29 08:58 53.88271 -50.48249 36263 ft 486 kts 61°
2026-04-29 08:58 53.90865 -50.37668 36258 ft 486 kts 61°
2026-04-29 08:59 53.93452 -50.27068 36257 ft 486 kts 61°
2026-04-29 08:59 53.96034 -50.16438 36263 ft 487 kts 61°
2026-04-29 09:00 53.98611 -50.05779 36259 ft 488 kts 61°
2026-04-29 09:00 54.00856 -49.94829 36257 ft 495 kts 70°
2026-04-29 09:01 54.02453 -49.83511 36263 ft 496 kts 71°
2026-04-29 09:01 54.04016 -49.72123 36258 ft 496 kts 71°
2026-04-29 09:02 54.05606 -49.60699 36275 ft 497 kts 70°
2026-04-29 09:02 54.06413 -49.54949 36460 ft 499 kts 70°
2026-04-29 09:02 54.07217 -49.49213 36773 ft 497 kts 70°
2026-04-29 09:02 54.08017 -49.43488 37128 ft 496 kts 71°
2026-04-29 09:03 54.08801 -49.37855 37475 ft 494 kts 71°
2026-04-29 09:03 54.09590 -49.32163 37799 ft 493 kts 71°
2026-04-29 09:03 54.10377 -49.26473 38082 ft 493 kts 71°
2026-04-29 09:03 54.11162 -49.20769 38342 ft 493 kts 71°
2026-04-29 09:04 54.11945 -49.15061 38617 ft 493 kts 71°
2026-04-29 09:04 54.12721 -49.09371 38924 ft 493 kts 71°
2026-04-29 09:04 54.13500 -49.03656 38998 ft 497 kts 71°
2026-04-29 09:04 54.14282 -48.97890 39113 ft 498 kts 71°
2026-04-29 09:05 54.15051 -48.92194 39180 ft 501 kts 71°
2026-04-29 09:05 54.16608 -48.80582 39243 ft 502 kts 72°
2026-04-29 09:06 54.18143 -48.69016 39244 ft 496 kts 72°
2026-04-29 09:06 54.19653 -48.57553 39251 ft 494 kts 72°
2026-04-29 09:07 54.21154 -48.46104 39251 ft 493 kts 72°
2026-04-29 09:07 54.22642 -48.34663 39254 ft 493 kts 72°
2026-04-29 09:08 54.24119 -48.23213 39255 ft 494 kts 72°
2026-04-29 09:08 54.25581 -48.11776 39260 ft 495 kts 72°
2026-04-29 09:09 54.27043 -48.00254 39257 ft 496 kts 72°
2026-04-29 09:09 54.28497 -47.88689 39281 ft 497 kts 72°
2026-04-29 09:10 54.29944 -47.77084 39263 ft 499 kts 72°
2026-04-29 09:10 54.31374 -47.65523 39257 ft 500 kts 73°
2026-04-29 09:11 54.32806 -47.53838 39252 ft 501 kts 73°
2026-04-29 09:11 54.34228 -47.42138 39253 ft 501 kts 73°
2026-04-29 09:12 54.35640 -47.30417 39252 ft 502 kts 73°
2026-04-29 09:12 54.37041 -47.18694 39260 ft 502 kts 73°
2026-04-29 09:13 54.38429 -47.06975 39254 ft 503 kts 73°
2026-04-29 09:13 54.39803 -46.95268 39255 ft 503 kts 73°
2026-04-29 09:14 54.41173 -46.83490 39253 ft 503 kts 73°
2026-04-29 09:14 54.42534 -46.71677 39253 ft 503 kts 73°
2026-04-29 09:15 54.43882 -46.59879 39263 ft 504 kts 74°
2026-04-29 09:15 54.45220 -46.48053 39257 ft 504 kts 74°
2026-04-29 09:16 54.46548 -46.36207 39248 ft 505 kts 74°
2026-04-29 09:16 54.47859 -46.24404 39252 ft 505 kts 74°
2026-04-29 09:17 54.49165 -46.12527 39244 ft 505 kts 74°
2026-04-29 09:17 54.50461 -46.00632 39269 ft 505 kts 75°
2026-04-29 09:18 54.51747 -45.88722 39250 ft 506 kts 75°
2026-04-29 09:18 54.53020 -45.76818 39250 ft 506 kts 75°
2026-04-29 09:19 54.54275 -45.64954 39247 ft 506 kts 75°
2026-04-29 09:19 54.55526 -45.53019 39250 ft 506 kts 75°
2026-04-29 09:20 54.56767 -45.41057 39252 ft 506 kts 75°
2026-04-29 09:20 54.57995 -45.29091 39252 ft 507 kts 75°
2026-04-29 09:21 54.59213 -45.17103 39243 ft 507 kts 75°
2026-04-29 09:21 54.60413 -45.05167 39245 ft 507 kts 76°
2026-04-29 09:22 54.61608 -44.93160 39247 ft 507 kts 76°
2026-04-29 09:22 54.62791 -44.81155 39245 ft 507 kts 76°
2026-04-29 09:23 54.63963 -44.69132 39245 ft 508 kts 76°
2026-04-29 09:23 54.65122 -44.57110 39242 ft 508 kts 76°
2026-04-29 09:24 54.66270 -44.45062 39241 ft 508 kts 76°
2026-04-29 09:24 54.67400 -44.33081 39244 ft 508 kts 76°
2026-04-29 09:25 54.68526 -44.21013 39253 ft 508 kts 77°
2026-04-29 09:25 54.69641 -44.08925 39250 ft 509 kts 77°
2026-04-29 09:26 54.70745 -43.96820 39249 ft 510 kts 77°
2026-04-29 09:26 54.71837 -43.84704 39246 ft 510 kts 77°
2026-04-29 09:27 54.72917 -43.72579 39245 ft 510 kts 77°
2026-04-29 09:27 54.73986 -43.60432 39242 ft 510 kts 77°
2026-04-29 09:28 54.75037 -43.48349 39262 ft 511 kts 77°
2026-04-29 09:28 54.76084 -43.36179 39248 ft 511 kts 78°
2026-04-29 09:29 54.77118 -43.23991 39243 ft 511 kts 78°
2026-04-29 09:29 54.78647 -43.05698 39245 ft 511 kts 78°
2026-04-29 09:30 54.79650 -42.93509 39245 ft 511 kts 78°
2026-04-29 09:30 54.80635 -42.81395 39255 ft 511 kts 78°
2026-04-29 09:31 54.81615 -42.69183 39247 ft 511 kts 79°
2026-04-29 09:31 54.82582 -42.56959 39243 ft 511 kts 79°
2026-04-29 09:32 54.83538 -42.44728 39239 ft 511 kts 79°
2026-04-29 09:32 54.84479 -42.32523 39246 ft 510 kts 79°
2026-04-29 09:33 54.85400 -42.20405 39242 ft 509 kts 79°
2026-04-29 09:33 54.86314 -42.08223 39243 ft 509 kts 79°
2026-04-29 09:34 54.87215 -41.96047 39247 ft 508 kts 79°
2026-04-29 09:34 54.88104 -41.83865 39247 ft 508 kts 79°
2026-04-29 09:35 54.88981 -41.71681 39244 ft 508 kts 80°
2026-04-29 09:35 54.89845 -41.59498 39266 ft 508 kts 80°
2026-04-29 09:36 54.90697 -41.47298 39252 ft 508 kts 80°
2026-04-29 09:36 54.91532 -41.35164 39247 ft 508 kts 81°
2026-04-29 09:37 54.92360 -41.22953 39253 ft 508 kts 81°
2026-04-29 09:37 54.93038 -41.12811 39251 ft 508 kts 81°
2026-04-29 09:38 54.93844 -41.00588 39249 ft 508 kts 81°
2026-04-29 09:38 54.94639 -40.88356 39254 ft 509 kts 81°
2026-04-29 09:39 54.95421 -40.76100 39255 ft 510 kts 81°
2026-04-29 09:39 54.96193 -40.63818 39257 ft 511 kts 81°
2026-04-29 09:40 54.96949 -40.51587 39249 ft 511 kts 82°
2026-04-29 09:40 54.97698 -40.39268 39242 ft 512 kts 82°
2026-04-29 09:41 54.98436 -40.26918 39262 ft 513 kts 82°
2026-04-29 09:41 54.99165 -40.14516 39256 ft 515 kts 82°
2026-04-29 09:42 54.99897 -40.02097 39248 ft 515 kts 81°
2026-04-29 09:42 55.01327 -39.89922 39249 ft 513 kts 73°
2026-04-29 09:43 55.03103 -39.77868 39248 ft 513 kts 73°
2026-04-29 09:43 55.04865 -39.65795 39256 ft 514 kts 74°
2026-04-29 09:44 55.06573 -39.53758 39254 ft 514 kts 74°
2026-04-29 09:44 55.08264 -39.41613 39248 ft 514 kts 74°
2026-04-29 09:45 55.09937 -39.29485 39245 ft 514 kts 74°
2026-04-29 09:45 55.11601 -39.17338 39244 ft 513 kts 74°
2026-04-29 09:46 55.13253 -39.05204 39252 ft 513 kts 75°
2026-04-29 09:46 55.14890 -38.93074 39246 ft 512 kts 75°
2026-04-29 09:47 55.16510 -38.80964 39242 ft 511 kts 75°
2026-04-29 09:47 55.18109 -38.68926 39241 ft 511 kts 75°
2026-04-29 09:48 55.19706 -38.56797 39235 ft 510 kts 75°
2026-04-29 09:48 55.21290 -38.44669 39243 ft 510 kts 76°
2026-04-29 09:49 55.22860 -38.32541 39242 ft 511 kts 76°
2026-04-29 09:49 55.24418 -38.20400 39240 ft 511 kts 76°
2026-04-29 09:50 55.25966 -38.08236 39240 ft 511 kts 76°
2026-04-29 09:50 55.27492 -37.96148 39251 ft 512 kts 76°
2026-04-29 09:51 55.29020 -37.83940 39233 ft 512 kts 77°
2026-04-29 09:51 55.30538 -37.71695 39238 ft 513 kts 77°
2026-04-29 09:52 55.32043 -37.59448 39237 ft 513 kts 77°
2026-04-29 09:52 55.33537 -37.47180 39234 ft 514 kts 77°
2026-04-29 09:53 55.35023 -37.34879 39242 ft 514 kts 77°
2026-04-29 09:53 55.36488 -37.22631 39231 ft 515 kts 78°
2026-04-29 09:54 55.37948 -37.10312 39234 ft 515 kts 78°
2026-04-29 09:54 55.39398 -36.97970 39231 ft 515 kts 78°
2026-04-29 09:55 55.40834 -36.85625 39231 ft 515 kts 78°
2026-04-29 09:55 55.42261 -36.73249 39237 ft 515 kts 78°
2026-04-29 09:56 55.43674 -36.60871 39231 ft 515 kts 78°
2026-04-29 09:56 55.45066 -36.48567 39217 ft 515 kts 79°
2026-04-29 09:57 55.46454 -36.36168 39228 ft 515 kts 79°
2026-04-29 09:57 55.47828 -36.23787 39231 ft 515 kts 79°
2026-04-29 09:58 55.49188 -36.11400 39225 ft 514 kts 79°
2026-04-29 09:58 55.50536 -35.99001 39226 ft 514 kts 79°
2026-04-29 09:59 55.51862 -35.86686 39225 ft 514 kts 79°
2026-04-29 09:59 55.53185 -35.74276 39226 ft 514 kts 79°
2026-04-29 10:00 55.54498 -35.61836 39226 ft 514 kts 80°
2026-04-29 10:00 55.55795 -35.49412 39225 ft 514 kts 80°
2026-04-29 10:01 55.57081 -35.36966 39225 ft 515 kts 80°
2026-04-29 10:01 55.58347 -35.24586 39223 ft 515 kts 80°
2026-04-29 10:02 55.59609 -35.12110 39207 ft 515 kts 81°
2026-04-29 10:02 55.60858 -34.99635 39222 ft 515 kts 81°
2026-04-29 10:03 55.62097 -34.87125 39223 ft 516 kts 81°
2026-04-29 10:03 55.63322 -34.74618 39223 ft 516 kts 81°
2026-04-29 10:04 55.64536 -34.62083 39220 ft 516 kts 81°
2026-04-29 10:04 55.65729 -34.49631 39223 ft 516 kts 81°
2026-04-29 10:05 55.66917 -34.37093 39218 ft 516 kts 82°
2026-04-29 10:05 55.68093 -34.24531 39217 ft 516 kts 82°
2026-04-29 10:06 55.69257 -34.11956 39213 ft 516 kts 82°
2026-04-29 10:06 55.70407 -33.99390 39217 ft 516 kts 82°
2026-04-29 10:07 55.71537 -33.86890 39214 ft 516 kts 83°
2026-04-29 10:07 55.72661 -33.74304 39199 ft 516 kts 83°
2026-04-29 10:08 55.73773 -33.61713 39208 ft 517 kts 83°
2026-04-29 10:08 55.74873 -33.49099 39212 ft 517 kts 83°
2026-04-29 10:09 55.75960 -33.36468 39210 ft 518 kts 83°
2026-04-29 10:09 55.77036 -33.23822 39204 ft 518 kts 84°
2026-04-29 10:10 55.78103 -33.11125 39207 ft 519 kts 84°
2026-04-29 10:10 55.79156 -32.98414 39205 ft 520 kts 84°
2026-04-29 10:11 55.80197 -32.85691 39211 ft 520 kts 84°
2026-04-29 10:11 55.81219 -32.73040 39202 ft 520 kts 84°
2026-04-29 10:12 55.82234 -32.60301 39200 ft 520 kts 84°
2026-04-29 10:12 55.83236 -32.47557 39200 ft 520 kts 84°
2026-04-29 10:13 55.84225 -32.34801 39199 ft 520 kts 85°
2026-04-29 10:13 55.85200 -32.22054 39192 ft 519 kts 85°
2026-04-29 10:14 55.86160 -32.09316 39197 ft 519 kts 85°
2026-04-29 10:14 55.87108 -31.96571 39191 ft 519 kts 85°
2026-04-29 10:15 55.88035 -31.83911 39193 ft 519 kts 85°
2026-04-29 10:15 55.88955 -31.71152 39201 ft 519 kts 86°
2026-04-29 10:16 55.89710 -31.60551 39203 ft 519 kts 86°
2026-04-29 10:16 55.90757 -31.45632 39184 ft 519 kts 86°
2026-04-29 10:17 55.91637 -31.32872 39191 ft 518 kts 86°
2026-04-29 10:17 55.92504 -31.20107 39194 ft 519 kts 86°
2026-04-29 10:18 55.93358 -31.07334 39200 ft 519 kts 87°
2026-04-29 10:18 55.94199 -30.94562 39202 ft 519 kts 87°
2026-04-29 10:19 55.95027 -30.81773 39179 ft 518 kts 88°
2026-04-29 10:19 55.95835 -30.69094 39188 ft 517 kts 88°
2026-04-29 10:20 55.96634 -30.56318 39198 ft 517 kts 88°
2026-04-29 10:20 55.97420 -30.43556 39192 ft 517 kts 88°
2026-04-29 10:21 55.98192 -30.30791 39197 ft 517 kts 88°
2026-04-29 10:21 55.98952 -30.18009 39196 ft 517 kts 88°
2026-04-29 10:22 55.99700 -30.05232 39192 ft 517 kts 88°
2026-04-29 10:22 56.00373 -29.92530 39194 ft 516 kts 90°
2026-04-29 10:23 56.00862 -29.79741 39194 ft 515 kts 91°
2026-04-29 10:23 56.01310 -29.66957 39195 ft 515 kts 91°
2026-04-29 10:24 56.01769 -29.54184 39189 ft 515 kts 91°
2026-04-29 10:24 56.02231 -29.41413 39184 ft 513 kts 91°
2026-04-29 10:25 56.02682 -29.28696 39182 ft 512 kts 91°
2026-04-29 10:25 56.03115 -29.16091 39184 ft 510 kts 91°
2026-04-29 10:26 56.03536 -29.03434 39177 ft 509 kts 91°
2026-04-29 10:26 56.03877 -28.92839 39184 ft 509 kts 91°
2026-04-29 10:27 56.04462 -28.73965 39191 ft 508 kts 91°
2026-04-29 10:28 56.04838 -28.61331 39186 ft 509 kts 92°
2026-04-29 10:28 56.05201 -28.48686 39186 ft 509 kts 92°
2026-04-29 10:29 56.05553 -28.36009 39175 ft 509 kts 92°
2026-04-29 10:29 56.05891 -28.23350 39187 ft 510 kts 92°
2026-04-29 10:30 56.06214 -28.10750 39173 ft 510 kts 93°
2026-04-29 10:30 56.06526 -27.98072 39185 ft 510 kts 93°
2026-04-29 10:31 56.06826 -27.85397 39186 ft 510 kts 93°
2026-04-29 10:31 56.07112 -27.72717 39167 ft 510 kts 93°
2026-04-29 10:32 56.07385 -27.60039 39178 ft 509 kts 94°
2026-04-29 10:32 56.07645 -27.47357 39184 ft 509 kts 94°
2026-04-29 10:33 56.07892 -27.34697 39182 ft 509 kts 94°
2026-04-29 10:33 56.08126 -27.22028 39183 ft 509 kts 94°
2026-04-29 10:34 56.08345 -27.09439 39164 ft 509 kts 94°
2026-04-29 10:34 56.08554 -26.96765 39179 ft 509 kts 94°
2026-04-29 10:35 56.08749 -26.84077 39183 ft 509 kts 94°
2026-04-29 10:35 56.08931 -26.71395 39165 ft 509 kts 95°
2026-04-29 10:36 56.09100 -26.58688 39178 ft 510 kts 95°
2026-04-29 10:36 56.09256 -26.46045 39169 ft 510 kts 95°
2026-04-29 10:37 56.09400 -26.33300 39171 ft 511 kts 95°
2026-04-29 10:37 56.09530 -26.20567 39177 ft 512 kts 95°
2026-04-29 10:38 56.09648 -26.07821 39175 ft 512 kts 96°
2026-04-29 10:38 56.09752 -25.95140 39170 ft 512 kts 96°
2026-04-29 10:39 56.09844 -25.82387 39160 ft 511 kts 96°
2026-04-29 10:39 56.09923 -25.69648 39162 ft 510 kts 96°
2026-04-29 10:40 56.09988 -25.56932 39165 ft 510 kts 96°
2026-04-29 10:40 56.10040 -25.44221 39165 ft 509 kts 96°
2026-04-29 10:41 56.10078 -25.31535 39164 ft 509 kts 96°
2026-04-29 10:41 56.10104 -25.18950 39153 ft 508 kts 97°
2026-04-29 10:42 56.10117 -25.06287 39151 ft 508 kts 97°
2026-04-29 10:42 56.10117 -24.93647 39157 ft 507 kts 97°
2026-04-29 10:43 56.10104 -24.80998 39154 ft 507 kts 97°
2026-04-29 10:43 56.10078 -24.68354 39156 ft 507 kts 97°
2026-04-29 10:44 56.10039 -24.55718 39145 ft 507 kts 97°
2026-04-29 10:44 56.09988 -24.43076 39156 ft 506 kts 97°
2026-04-29 10:45 56.09923 -24.30527 39147 ft 506 kts 97°
2026-04-29 10:45 56.09846 -24.17919 39159 ft 506 kts 97°
2026-04-29 10:46 56.09756 -24.05311 39145 ft 506 kts 97°
2026-04-29 10:46 56.09653 -23.92707 39147 ft 505 kts 97°
2026-04-29 10:47 56.09538 -23.80113 39157 ft 504 kts 97°
2026-04-29 10:47 56.09410 -23.67550 39158 ft 504 kts 98°
2026-04-29 10:48 56.09270 -23.55088 39148 ft 504 kts 98°
2026-04-29 10:48 56.09116 -23.42542 39156 ft 503 kts 98°
2026-04-29 10:49 56.08951 -23.30022 39161 ft 502 kts 98°
2026-04-29 10:49 56.08771 -23.17495 39149 ft 503 kts 98°
2026-04-29 10:50 56.08581 -23.04976 39166 ft 502 kts 98°
2026-04-29 10:50 56.08378 -22.92475 39164 ft 502 kts 98°
2026-04-29 10:51 56.08163 -22.80070 39167 ft 501 kts 98°
2026-04-29 10:51 56.07936 -22.67614 39164 ft 499 kts 97°
2026-04-29 10:52 56.07695 -22.55176 39162 ft 499 kts 97°
2026-04-29 10:52 56.07443 -22.42770 39178 ft 499 kts 97°
2026-04-29 10:53 56.07178 -22.30360 39179 ft 498 kts 98°
2026-04-29 10:53 56.06903 -22.18038 39184 ft 499 kts 98°
2026-04-29 10:54 56.06614 -22.05637 39177 ft 498 kts 97°
2026-04-29 10:54 56.06313 -21.93251 39192 ft 498 kts 98°
2026-04-29 10:55 56.06000 -21.80868 39190 ft 498 kts 98°
2026-04-29 10:55 56.05674 -21.68485 39194 ft 498 kts 98°
2026-04-29 10:56 56.05335 -21.56110 39201 ft 498 kts 98°
2026-04-29 10:56 56.04985 -21.43742 39189 ft 497 kts 98°
2026-04-29 10:57 56.04623 -21.31418 39199 ft 495 kts 97°
2026-04-29 10:57 56.04253 -21.19202 39206 ft 494 kts 97°
2026-04-29 10:58 56.03868 -21.06931 39220 ft 493 kts 97°
2026-04-29 10:58 56.03472 -20.94680 39214 ft 493 kts 98°
2026-04-29 10:59 56.03064 -20.82438 39212 ft 492 kts 97°
2026-04-29 10:59 56.02645 -20.70224 39226 ft 492 kts 97°
2026-04-29 11:00 56.02214 -20.58030 39234 ft 491 kts 98°
2026-04-29 11:00 56.01774 -20.45922 39238 ft 491 kts 98°
2026-04-29 11:01 56.01319 -20.33718 39248 ft 492 kts 98°
2026-04-29 11:01 56.00851 -20.21502 39232 ft 492 kts 98°
2026-04-29 11:02 56.00375 -20.09305 39229 ft 492 kts 97°
2026-04-29 11:02 55.99995 -19.97111 39254 ft 492 kts 92°
2026-04-29 11:03 56.00218 -19.84961 39258 ft 492 kts 91°
2026-04-29 11:03 56.00493 -19.72730 39259 ft 492 kts 91°
2026-04-29 11:04 56.00732 -19.60515 39249 ft 491 kts 91°
2026-04-29 11:04 56.00939 -19.48310 39258 ft 490 kts 91°
2026-04-29 11:05 56.01126 -19.36154 39266 ft 489 kts 91°
2026-04-29 11:05 56.01300 -19.24077 39269 ft 488 kts 91°
2026-04-29 11:06 56.01465 -19.11929 39274 ft 488 kts 91°
2026-04-29 11:06 56.01617 -18.99805 39268 ft 487 kts 91°
2026-04-29 11:07 56.01759 -18.87696 39274 ft 487 kts 92°
2026-04-29 11:07 56.01887 -18.75611 39277 ft 486 kts 92°
2026-04-29 11:08 56.02004 -18.63531 39282 ft 486 kts 92°
2026-04-29 11:08 56.02109 -18.51524 39283 ft 485 kts 92°
2026-04-29 11:09 56.02202 -18.39462 39284 ft 485 kts 92°
2026-04-29 11:09 56.02283 -18.27410 39286 ft 484 kts 92°
2026-04-29 11:10 56.02353 -18.15381 39292 ft 483 kts 92°
2026-04-29 11:10 56.02411 -18.03373 39295 ft 482 kts 92°
2026-04-29 11:11 56.02457 -17.91411 39301 ft 481 kts 92°
2026-04-29 11:11 56.02490 -17.79547 39298 ft 480 kts 92°
2026-04-29 11:12 56.02513 -17.67605 39304 ft 480 kts 93°
2026-04-29 11:12 56.02524 -17.55688 39304 ft 479 kts 93°
2026-04-29 11:13 56.02524 -17.43765 39305 ft 480 kts 93°
2026-04-29 11:13 56.02512 -17.31831 39305 ft 480 kts 93°
2026-04-29 11:14 56.02489 -17.19894 39303 ft 480 kts 93°
2026-04-29 11:14 56.02454 -17.07975 39308 ft 480 kts 93°
2026-04-29 11:15 56.02408 -16.96037 39309 ft 480 kts 93°
2026-04-29 11:15 56.02350 -16.84105 39310 ft 480 kts 93°
2026-04-29 11:16 56.02281 -16.72240 39318 ft 480 kts 93°
2026-04-29 11:16 56.02200 -16.60311 39312 ft 479 kts 93°
2026-04-29 11:17 56.02125 -16.50402 39323 ft 479 kts 94°
2026-04-29 11:17 56.02023 -16.38487 39320 ft 479 kts 94°
2026-04-29 11:18 56.01910 -16.26578 39321 ft 479 kts 94°
2026-04-29 11:18 56.01785 -16.14671 39322 ft 479 kts 94°
2026-04-29 11:19 56.01650 -16.02780 39320 ft 479 kts 94°
2026-04-29 11:19 56.01502 -15.90868 39329 ft 479 kts 94°
2026-04-29 11:20 56.01343 -15.78981 39333 ft 479 kts 94°
2026-04-29 11:20 56.01174 -15.67141 39331 ft 479 kts 94°
2026-04-29 11:21 56.00992 -15.55218 39339 ft 479 kts 95°
2026-04-29 11:21 56.00798 -15.43305 39327 ft 479 kts 95°
2026-04-29 11:22 56.00594 -15.31398 39343 ft 479 kts 95°